Time,TemperatureF,DewpointF,PressureIn,WindDirection,WindDirectionDegrees,WindSpeedMPH,WindSpeedGustMPH,Humidity,HourlyPrecipIn,Conditions,Clouds,dailyrainin,SoftwareType,DateUTC
2013-03-22 00:00:00,31.5,16.4,29.93,West,277,1.0,2.0,53,0.00,,,0.00,WeatherCatV1.11B39,2013-03-22 04:00:00,
2013-03-22 00:01:00,31.5,16.8,29.93,West,277,0.0,2.0,54,0.00,,,0.00,WeatherCatV1.11B39,2013-03-22 04:01:00,
2013-03-22 00:06:00,31.4,15.8,29.93,West,277,0.0,0.0,52,0.00,,,0.00,WeatherCatV1.11B39,2013-03-22 04:06:00,
2013-03-22 00:11:00,31.3,15.7,29.93,West,277,0.0,0.0,52,0.00,,,0.00,WeatherCatV1.11B39,2013-03-22 04:11:00,
2013-03-22 00:16:00,31.2,16.9,29.93,West,277,1.0,2.0,55,0.00,,,0.00,WeatherCatV1.11B39,2013-03-22 04:16:00,
2013-03-22 00:21:00,31.1,16.8,29.93,West,277,0.0,1.0,55,0.00,,,0.00,WeatherCatV1.11B39,2013-03-22 04:21:00,
2013-03-22 00:26:00,31.0,15.9,29.93,West,277,0.0,0.0,53,0.00,,,0.00,WeatherCatV1.11B39,2013-03-22 04:26:00,
2013-03-22 00:31:00,30.9,17.1,29.93,West,277,0.0,0.0,56,0.00,,,0.00,WeatherCatV1.11B39,2013-03-22 04:31:00,
2013-03-22 00:36:00,30.7,16.0,29.93,West,277,0.0,0.0,54,0.00,,,0.00,WeatherCatV1.11B39,2013-03-22 04:36:00,
2013-03-22 00:41:00,30.7,17.3,29.93,West,277,0.0,0.0,57,0.00,,,0.00,WeatherCatV1.11B39,2013-03-22 04:41:00,
2013-03-22 00:46:00,30.6,17.6,29.93,West,277,0.0,1.0,58,0.00,,,0.00,WeatherCatV1.11B39,2013-03-22 04:46:00,
2013-03-22 00:51:00,30.6,17.6,29.93,West,277,2.0,4.0,58,0.00,,,0.00,WeatherCatV1.11B39,2013-03-22 04:51:00,
2013-03-22 00:56:00,30.6,16.8,29.93,West,277,2.0,4.0,56,0.00,,,0.00,WeatherCatV1.11B39,2013-03-22 04:56:00,
2013-03-22 01:01:00,30.6,17.2,29.92,West,277,2.0,2.0,57,0.00,,,0.00,WeatherCatV1.11B39,2013-03-22 05:01:00,
2013-03-22 01:06:00,30.6,16.0,29.92,West,277,0.0,4.0,54,0.00,,,0.00,WeatherCatV1.11B39,2013-03-22 05:06:00,
2013-03-22 01:11:00,30.6,16.0,29.92,West,277,2.0,4.0,54,0.00,,,0.00,WeatherCatV1.11B39,2013-03-22 05:11:00,
2013-03-22 01:16:00,30.7,16.5,29.92,West,277,2.0,2.0,55,0.00,,,0.00,WeatherCatV1.11B39,2013-03-22 05:16:00,
2013-03-22 01:21:00,30.8,15.3,29.92,West,277,2.0,4.0,52,0.00,,,0.00,WeatherCatV1.11B39,2013-03-22 05:21:00,
2013-03-22 01:26:00,30.8,17.0,29.91,West,277,2.0,2.0,56,0.00,,,0.00,WeatherCatV1.11B39,2013-03-22 05:26:00,
2013-03-22 01:31:00,30.7,17.3,29.92,West,277,0.0,1.0,57,0.00,,,0.00,WeatherCatV1.11B39,2013-03-22 05:31:00,
2013-03-22 01:36:00,30.6,16.4,29.92,West,277,0.0,0.0,55,0.00,,,0.00,WeatherCatV1.11B39,2013-03-22 05:36:00,
2013-03-22 01:41:00,30.3,19.2,29.93,West,277,2.0,4.0,63,0.00,,,0.00,WeatherCatV1.11B39,2013-03-22 05:41:00,
2013-03-22 01:46:00,29.9,18.9,29.93,West,277,1.0,2.0,63,0.00,,,0.00,WeatherCatV1.11B39,2013-03-22 05:46:00,
2013-03-22 01:51:00,29.6,18.9,29.93,West,277,0.0,0.0,64,0.00,,,0.00,WeatherCatV1.11B39,2013-03-22 05:51:00,
2013-03-22 01:56:00,29.4,19.1,29.93,West,277,1.0,4.0,65,0.00,,,0.00,WeatherCatV1.11B39,2013-03-22 05:56:00,
2013-03-22 02:01:00,29.3,18.7,29.92,West,277,2.0,2.0,64,0.00,,,0.00,WeatherCatV1.11B39,2013-03-22 06:01:00,
2013-03-22 02:06:00,29.4,18.4,29.93,West,277,0.0,0.0,63,0.00,,,0.00,WeatherCatV1.11B39,2013-03-22 06:06:00,
2013-03-22 02:11:00,29.4,19.1,29.93,West,277,0.0,2.0,65,0.00,,,0.00,WeatherCatV1.11B39,2013-03-22 06:11:00,
2013-03-22 02:16:00,29.3,19.0,29.93,West,277,0.0,0.0,65,0.00,,,0.00,WeatherCatV1.11B39,2013-03-22 06:16:00,
2013-03-22 02:21:00,29.3,19.7,29.94,West,277,0.0,0.0,67,0.00,,,0.00,WeatherCatV1.11B39,2013-03-22 06:21:00,
2013-03-22 02:26:00,29.2,18.9,29.94,West,277,0.0,0.0,65,0.00,,,0.00,WeatherCatV1.11B39,2013-03-22 06:26:00,
2013-03-22 02:31:00,29.3,17.9,29.94,West,277,0.0,0.0,62,0.00,,,0.00,WeatherCatV1.11B39,2013-03-22 06:31:00,
2013-03-22 02:36:00,29.5,17.3,29.95,West,277,0.0,0.0,60,0.00,,,0.00,WeatherCatV1.11B39,2013-03-22 06:36:00,
2013-03-22 02:41:00,29.6,18.9,29.95,West,277,0.0,0.0,64,0.00,,,0.00,WeatherCatV1.11B39,2013-03-22 06:41:00,
2013-03-22 02:46:00,29.7,18.7,29.95,West,277,0.0,0.0,63,0.00,,,0.00,WeatherCatV1.11B39,2013-03-22 06:46:00,
2013-03-22 02:51:00,29.7,19.0,29.96,West,277,1.0,2.0,64,0.00,,,0.00,WeatherCatV1.11B39,2013-03-22 06:51:00,
2013-03-22 02:56:00,29.8,19.1,29.96,West,277,0.0,0.0,64,0.00,,,0.00,WeatherCatV1.11B39,2013-03-22 06:56:00,
2013-03-22 03:01:00,30.0,19.3,29.96,West,277,1.0,2.0,64,0.00,,,0.00,WeatherCatV1.11B39,2013-03-22 07:01:00,
2013-03-22 03:06:00,30.2,17.6,29.96,West,277,2.0,2.0,59,0.00,,,0.00,WeatherCatV1.11B39,2013-03-22 07:06:00,
2013-03-22 03:11:00,30.7,19.2,29.96,West,277,0.0,0.0,62,0.00,,,0.00,WeatherCatV1.11B39,2013-03-22 07:11:00,
2013-03-22 03:16:00,30.9,19.1,29.95,West,277,0.0,0.0,61,0.00,,,0.00,WeatherCatV1.11B39,2013-03-22 07:16:00,
2013-03-22 03:21:00,31.2,19.3,29.95,West,277,0.0,0.0,61,0.00,,,0.00,WeatherCatV1.11B39,2013-03-22 07:21:00,
2013-03-22 03:26:00,31.5,20.7,29.94,West,277,0.0,0.0,64,0.00,,,0.00,WeatherCatV1.11B39,2013-03-22 07:26:00,
2013-03-22 03:31:00,31.7,20.2,29.94,West,277,0.0,2.0,62,0.00,,,0.00,WeatherCatV1.11B39,2013-03-22 07:31:00,
2013-03-22 03:36:00,31.9,20.8,29.95,West,277,1.0,4.0,63,0.00,,,0.00,WeatherCatV1.11B39,2013-03-22 07:36:00,
2013-03-22 03:41:00,32.0,19.3,29.95,West,277,0.0,4.0,59,0.00,,,0.00,WeatherCatV1.11B39,2013-03-22 07:41:00,
2013-03-22 03:46:00,32.2,19.9,29.95,West,277,0.0,0.0,60,0.00,,,0.00,WeatherCatV1.11B39,2013-03-22 07:46:00,
2013-03-22 03:51:00,32.3,18.4,29.95,West,277,0.0,0.0,56,0.00,,,0.00,WeatherCatV1.11B39,2013-03-22 07:51:00,
2013-03-22 03:56:00,32.4,20.5,29.95,West,277,1.0,1.0,61,0.00,,,0.00,WeatherCatV1.11B39,2013-03-22 07:56:00,
2013-03-22 04:01:00,32.3,19.2,29.95,West,277,0.0,0.0,58,0.00,,,0.00,WeatherCatV1.11B39,2013-03-22 08:01:00,
2013-03-22 04:06:00,32.1,20.6,29.95,West,277,0.0,0.0,62,0.00,,,0.00,WeatherCatV1.11B39,2013-03-22 08:06:00,
2013-03-22 04:11:00,32.0,17.7,29.95,West,277,0.0,0.0,55,0.00,,,0.00,WeatherCatV1.11B39,2013-03-22 08:11:00,
2013-03-22 04:16:00,32.0,17.7,29.95,West,277,0.0,0.0,55,0.00,,,0.00,WeatherCatV1.11B39,2013-03-22 08:16:00,
2013-03-22 04:21:00,32.1,18.2,29.96,West,277,0.0,0.0,56,0.00,,,0.00,WeatherCatV1.11B39,2013-03-22 08:21:00,
2013-03-22 04:26:00,32.2,18.3,29.96,West,277,0.0,0.0,56,0.00,,,0.00,WeatherCatV1.11B39,2013-03-22 08:26:00,
2013-03-22 04:31:00,32.4,18.5,29.96,West,277,1.0,2.0,56,0.00,,,0.00,WeatherCatV1.11B39,2013-03-22 08:31:00,
2013-03-22 04:36:00,32.5,18.6,29.96,West,277,0.0,0.0,56,0.00,,,0.00,WeatherCatV1.11B39,2013-03-22 08:36:00,
2013-03-22 04:41:00,32.7,18.8,29.96,West,277,0.0,0.0,56,0.00,,,0.00,WeatherCatV1.11B39,2013-03-22 08:41:00,
2013-03-22 04:46:00,32.9,20.2,29.96,West,277,0.0,0.0,59,0.00,,,0.00,WeatherCatV1.11B39,2013-03-22 08:46:00,
2013-03-22 04:51:00,32.9,20.2,29.96,West,277,0.0,0.0,59,0.00,,,0.00,WeatherCatV1.11B39,2013-03-22 08:51:00,
2013-03-22 04:56:00,32.9,19.4,29.96,West,277,0.0,0.0,57,0.00,,,0.00,WeatherCatV1.11B39,2013-03-22 08:56:00,
2013-03-22 05:01:00,32.9,18.5,29.96,West,277,0.0,0.0,55,0.00,,,0.00,WeatherCatV1.11B39,2013-03-22 09:01:00,
2013-03-22 05:06:00,32.9,18.5,29.96,West,277,0.0,0.0,55,0.00,,,0.00,WeatherCatV1.11B39,2013-03-22 09:06:00,
2013-03-22 05:11:00,32.9,22.4,29.96,West,277,0.0,0.0,65,0.00,,,0.00,WeatherCatV1.11B39,2013-03-22 09:11:00,
2013-03-22 05:16:00,32.7,22.3,29.96,West,277,0.0,0.0,65,0.00,,,0.00,WeatherCatV1.11B39,2013-03-22 09:16:00,
2013-03-22 05:21:00,32.5,20.9,29.96,West,277,2.0,2.0,62,0.00,,,0.00,WeatherCatV1.11B39,2013-03-22 09:21:00,
2013-03-22 05:26:00,32.6,21.0,29.97,West,277,1.0,2.0,62,0.00,,,0.00,WeatherCatV1.11B39,2013-03-22 09:26:00,
2013-03-22 05:31:00,32.9,19.8,29.96,West,277,2.0,2.0,58,0.00,,,0.00,WeatherCatV1.11B39,2013-03-22 09:31:00,
2013-03-22 05:36:00,33.1,20.7,29.96,West,277,0.0,0.0,60,0.00,,,0.00,WeatherCatV1.11B39,2013-03-22 09:36:00,
2013-03-22 05:41:00,33.1,22.6,29.97,West,277,0.0,2.0,65,0.00,,,0.00,WeatherCatV1.11B39,2013-03-22 09:41:00,
2013-03-22 05:46:00,33.0,21.4,29.96,West,277,0.0,0.0,62,0.00,,,0.00,WeatherCatV1.11B39,2013-03-22 09:46:00,
2013-03-22 05:51:00,33.0,21.0,29.96,West,277,0.0,0.0,61,0.00,,,0.00,WeatherCatV1.11B39,2013-03-22 09:51:00,
2013-03-22 05:56:00,33.0,22.2,29.96,West,277,0.0,0.0,64,0.00,,,0.00,WeatherCatV1.11B39,2013-03-22 09:56:00,
2013-03-22 06:01:00,33.0,22.5,29.96,West,277,0.0,0.0,65,0.00,,,0.00,WeatherCatV1.11B39,2013-03-22 10:01:00,
2013-03-22 06:06:00,33.1,22.6,29.96,West,277,0.0,0.0,65,0.00,,,0.00,WeatherCatV1.11B39,2013-03-22 10:06:00,
2013-03-22 06:11:00,33.0,22.9,29.96,West,277,0.0,0.0,66,0.00,,,0.00,WeatherCatV1.11B39,2013-03-22 10:11:00,
2013-03-22 06:16:00,33.0,22.5,29.96,West,277,0.0,0.0,65,0.00,,,0.00,WeatherCatV1.11B39,2013-03-22 10:16:00,
2013-03-22 06:21:00,33.1,22.3,29.96,West,277,0.0,0.0,64,0.00,,,0.00,WeatherCatV1.11B39,2013-03-22 10:21:00,
2013-03-22 06:26:00,33.0,22.2,29.96,West,277,0.0,0.0,64,0.00,,,0.00,WeatherCatV1.11B39,2013-03-22 10:26:00,
2013-03-22 06:31:00,33.1,22.3,29.96,West,277,0.0,0.0,64,0.00,,,0.00,WeatherCatV1.11B39,2013-03-22 10:31:00,
2013-03-22 06:36:00,33.1,20.4,29.96,West,277,0.0,0.0,59,0.00,,,0.00,WeatherCatV1.11B39,2013-03-22 10:36:00,
2013-03-22 06:41:00,33.2,20.4,29.97,West,277,0.0,0.0,59,0.00,,,0.00,WeatherCatV1.11B39,2013-03-22 10:41:00,
2013-03-22 06:46:00,33.2,23.1,29.98,South,171,5.0,6.0,66,0.00,,,0.00,WeatherCatV1.11B39,2013-03-22 10:46:00,
2013-03-22 06:51:00,33.0,21.8,29.98,SSE,156,4.0,5.0,63,0.00,,,0.00,WeatherCatV1.11B39,2013-03-22 10:51:00,
2013-03-22 06:56:00,32.9,22.4,29.98,SSE,156,1.0,4.0,65,0.00,,,0.00,WeatherCatV1.11B39,2013-03-22 10:56:00,
2013-03-22 07:01:00,32.9,21.7,29.99,SSE,156,2.0,4.0,63,0.00,,,0.00,WeatherCatV1.11B39,2013-03-22 11:01:00,
2013-03-22 07:06:00,32.9,22.1,29.99,SSE,156,1.0,2.0,64,0.00,,,0.00,WeatherCatV1.11B39,2013-03-22 11:06:00,
2013-03-22 07:11:00,32.9,20.6,29.99,SSE,156,0.0,0.0,60,0.00,,,0.00,WeatherCatV1.11B39,2013-03-22 11:11:00,
2013-03-22 07:16:00,32.9,21.7,29.99,SSE,157,0.0,0.0,63,0.00,,,0.00,WeatherCatV1.11B39,2013-03-22 11:16:00,
2013-03-22 07:21:00,32.9,21.3,29.99,SSE,157,0.0,0.0,62,0.00,,,0.00,WeatherCatV1.11B39,2013-03-22 11:21:00,
2013-03-22 07:26:00,33.0,21.4,29.99,SSE,157,0.0,0.0,62,0.00,,,0.00,WeatherCatV1.11B39,2013-03-22 11:26:00,
2013-03-22 07:31:00,33.0,21.0,29.99,SSE,157,0.0,0.0,61,0.00,,,0.00,WeatherCatV1.11B39,2013-03-22 11:31:00,
2013-03-22 07:36:00,33.1,20.7,29.99,SSE,157,0.0,0.0,60,0.00,,,0.00,WeatherCatV1.11B39,2013-03-22 11:36:00,
2013-03-22 07:41:00,33.1,21.1,29.99,SSE,157,0.0,0.0,61,0.00,,,0.00,WeatherCatV1.11B39,2013-03-22 11:41:00,
2013-03-22 07:46:00,33.2,21.2,29.99,SSE,157,0.0,0.0,61,0.00,,,0.00,WeatherCatV1.11B39,2013-03-22 11:46:00,
2013-03-22 07:51:00,33.2,22.4,29.99,SSE,157,0.0,0.0,64,0.00,,,0.00,WeatherCatV1.11B39,2013-03-22 11:51:00,
2013-03-22 07:56:00,33.2,21.6,29.98,SSE,157,1.0,1.0,62,0.00,,,0.00,WeatherCatV1.11B39,2013-03-22 11:56:00,
2013-03-22 08:01:00,33.3,21.3,29.98,SSE,157,0.0,0.0,61,0.00,,,0.00,WeatherCatV1.11B39,2013-03-22 12:01:00,
2013-03-22 08:06:00,33.4,21.4,29.99,SSE,157,0.0,0.0,61,0.00,,,0.00,WeatherCatV1.11B39,2013-03-22 12:06:00,
2013-03-22 08:11:00,33.5,21.1,29.99,SSE,157,0.0,0.0,60,0.00,,,0.00,WeatherCatV1.11B39,2013-03-22 12:11:00,
2013-03-22 08:16:00,33.6,20.8,29.99,SSE,157,0.0,0.0,59,0.00,,,0.00,WeatherCatV1.11B39,2013-03-22 12:16:00,
2013-03-22 08:21:00,33.7,21.3,29.99,SSE,157,0.0,0.0,60,0.00,,,0.00,WeatherCatV1.11B39,2013-03-22 12:21:00,
2013-03-22 08:26:00,33.9,22.3,29.99,SSE,157,0.0,0.0,62,0.00,,,0.00,WeatherCatV1.11B39,2013-03-22 12:26:00,
2013-03-22 08:31:00,34.0,22.0,29.99,SSE,157,0.0,0.0,61,0.00,,,0.00,WeatherCatV1.11B39,2013-03-22 12:31:00,
2013-03-22 08:36:00,34.2,22.6,29.99,SSE,157,0.0,1.0,62,0.00,,,0.00,WeatherCatV1.11B39,2013-03-22 12:36:00,
2013-03-22 08:41:00,34.3,19.4,30.00,West,277,4.0,4.0,54,0.00,,,0.00,WeatherCatV1.11B39,2013-03-22 12:41:00,
2013-03-22 08:46:00,34.5,19.2,30.00,West,278,4.0,5.0,53,0.00,,,0.00,WeatherCatV1.11B39,2013-03-22 12:46:00,
2013-03-22 08:51:00,34.6,18.8,29.99,West,278,1.0,4.0,52,0.00,,,0.00,WeatherCatV1.11B39,2013-03-22 12:51:00,
2013-03-22 08:56:00,34.8,19.4,30.00,West,278,0.0,0.0,53,0.00,,,0.00,WeatherCatV1.11B39,2013-03-22 12:56:00,
2013-03-22 09:01:00,34.9,19.1,30.00,West,278,1.0,4.0,52,0.00,,,0.00,WeatherCatV1.11B39,2013-03-22 13:01:00,
2013-03-22 09:06:00,35.0,18.7,30.00,West,278,1.0,4.0,51,0.00,,,0.00,WeatherCatV1.11B39,2013-03-22 13:06:00,
2013-03-22 09:11:00,35.2,19.4,30.00,West,278,2.0,5.0,52,0.00,,,0.00,WeatherCatV1.11B39,2013-03-22 13:11:00,
2013-03-22 09:16:00,35.3,19.5,30.00,West,278,0.0,2.0,52,0.00,,,0.00,WeatherCatV1.11B39,2013-03-22 13:16:00,
2013-03-22 09:21:00,35.7,20.3,30.00,West,278,0.0,0.0,53,0.00,,,0.00,WeatherCatV1.11B39,2013-03-22 13:21:00,
2013-03-22 09:26:00,36.0,19.6,30.00,NNE,28,2.0,4.0,51,0.00,,,0.00,WeatherCatV1.11B39,2013-03-22 13:26:00,
2013-03-22 09:31:00,36.2,18.4,30.01,NE,34,2.0,4.0,48,0.00,,,0.00,WeatherCatV1.11B39,2013-03-22 13:31:00,
2013-03-22 09:36:00,36.4,18.6,30.01,NE,34,2.0,2.0,48,0.00,,,0.00,WeatherCatV1.11B39,2013-03-22 13:36:00,
2013-03-22 09:41:00,36.5,19.2,30.01,NE,34,0.0,0.0,49,0.00,,,0.00,WeatherCatV1.11B39,2013-03-22 13:41:00,
2013-03-22 09:46:00,36.8,19.5,30.01,NE,34,0.0,0.0,49,0.00,,,0.00,WeatherCatV1.11B39,2013-03-22 13:46:00,
2013-03-22 09:51:00,37.0,19.2,30.01,NE,34,0.0,1.0,48,0.00,,,0.00,WeatherCatV1.11B39,2013-03-22 13:51:00,
2013-03-22 09:56:00,37.2,19.3,30.01,NE,34,0.0,1.0,48,0.00,,,0.00,WeatherCatV1.11B39,2013-03-22 13:56:00,
2013-03-22 10:01:00,37.3,18.4,30.01,NE,34,1.0,3.0,46,0.00,,,0.00,WeatherCatV1.11B39,2013-03-22 14:01:00,
2013-03-22 10:06:00,37.4,18.0,30.01,NE,34,2.0,3.0,45,0.00,,,0.00,WeatherCatV1.11B39,2013-03-22 14:06:00,
2013-03-22 10:11:00,37.5,18.6,30.00,NE,42,4.0,5.0,46,0.00,,,0.00,WeatherCatV1.11B39,2013-03-22 14:11:00,
2013-03-22 10:16:00,37.6,18.7,30.00,NE,36,2.0,4.0,46,0.00,,,0.00,WeatherCatV1.11B39,2013-03-22 14:16:00,
2013-03-22 10:21:00,37.8,19.9,30.00,NE,36,1.0,3.0,48,0.00,,,0.00,WeatherCatV1.11B39,2013-03-22 14:21:00,
2013-03-22 10:26:00,38.0,19.1,30.00,NE,35,2.0,3.0,46,0.00,,,0.00,WeatherCatV1.11B39,2013-03-22 14:26:00,
2013-03-22 10:31:00,38.3,18.3,30.00,NE,35,3.0,4.0,44,0.00,,,0.00,WeatherCatV1.11B39,2013-03-22 14:31:00,
2013-03-22 10:36:00,38.5,18.5,30.00,NE,36,4.0,4.0,44,0.00,,,0.00,WeatherCatV1.11B39,2013-03-22 14:36:00,
2013-03-22 10:41:00,38.7,19.2,30.00,NE,36,3.0,4.0,45,0.00,,,0.00,WeatherCatV1.11B39,2013-03-22 14:41:00,
2013-03-22 10:46:00,39.2,19.1,30.00,NNE,23,5.0,7.0,44,0.00,,,0.00,WeatherCatV1.11B39,2013-03-22 14:46:00,
2013-03-22 10:51:00,39.4,18.2,30.00,NNE,32,0.0,2.0,42,0.00,,,0.00,WeatherCatV1.11B39,2013-03-22 14:51:00,
2013-03-22 10:56:00,39.8,20.2,30.00,NE,35,6.0,6.0,45,0.00,,,0.00,WeatherCatV1.11B39,2013-03-22 14:56:00,
2013-03-22 11:02:00,40.2,19.5,30.00,ENE,62,2.0,3.0,43,0.00,,,0.00,WeatherCatV1.11B39,2013-03-22 15:02:00,
2013-03-22 11:07:00,40.4,19.7,30.00,ENE,58,4.0,6.0,43,0.00,,,0.00,WeatherCatV1.11B39,2013-03-22 15:07:00,
2013-03-22 11:12:00,40.6,19.9,30.00,NE,48,4.0,4.0,43,0.00,,,0.00,WeatherCatV1.11B39,2013-03-22 15:12:00,
2013-03-22 11:17:00,40.7,19.4,30.00,NE,47,2.0,2.0,42,0.00,,,0.00,WeatherCatV1.11B39,2013-03-22 15:17:00,
2013-03-22 11:22:00,40.8,18.4,30.00,NE,47,1.0,4.0,40,0.00,,,0.00,WeatherCatV1.11B39,2013-03-22 15:22:00,
2013-03-22 11:27:00,41.0,19.7,30.00,NE,47,0.0,0.0,42,0.00,,,0.00,WeatherCatV1.11B39,2013-03-22 15:27:00,
2013-03-22 11:32:00,41.3,19.4,30.00,NE,44,1.0,3.0,41,0.00,,,0.00,WeatherCatV1.11B39,2013-03-22 15:32:00,
2013-03-22 11:37:00,41.6,19.1,30.01,NE,46,2.0,2.0,40,0.00,,,0.00,WeatherCatV1.11B39,2013-03-22 15:37:00,
2013-03-22 11:42:00,42.0,20.6,30.00,NE,46,0.0,3.0,42,0.00,,,0.00,WeatherCatV1.11B39,2013-03-22 15:42:00,
2013-03-22 11:47:00,42.6,19.4,30.00,NNE,28,0.0,5.0,39,0.00,,,0.00,WeatherCatV1.11B39,2013-03-22 15:47:00,
2013-03-22 11:52:00,42.8,19.6,30.00,NNE,32,4.0,4.0,39,0.00,,,0.00,WeatherCatV1.11B39,2013-03-22 15:52:00,
2013-03-22 11:57:00,42.9,18.4,30.00,East,80,2.0,4.0,37,0.00,,,0.00,WeatherCatV1.11B39,2013-03-22 15:57:00,
2013-03-22 12:02:00,42.6,18.2,30.00,ESE,103,2.0,7.0,37,0.00,,,0.00,WeatherCatV1.11B39,2013-03-22 16:02:00,
2013-03-22 12:07:00,42.5,19.9,30.00,ESE,117,5.0,5.0,40,0.00,,,0.00,WeatherCatV1.11B39,2013-03-22 16:07:00,
2013-03-22 12:12:00,42.5,18.7,30.00,SE,136,1.0,4.0,38,0.00,,,0.00,WeatherCatV1.11B39,2013-03-22 16:12:00,
2013-03-22 12:17:00,42.5,20.5,30.00,SSE,151,5.0,6.0,41,0.00,,,0.00,WeatherCatV1.11B39,2013-03-22 16:17:00,
2013-03-22 12:22:00,42.7,18.9,30.00,SE,125,0.0,7.0,38,0.00,,,0.00,WeatherCatV1.11B39,2013-03-22 16:22:00,
2013-03-22 12:27:00,43.0,19.8,29.99,ESE,119,5.0,5.0,39,0.00,,,0.00,WeatherCatV1.11B39,2013-03-22 16:27:00,
2013-03-22 12:32:00,43.3,19.4,30.00,SSE,167,4.0,6.0,38,0.00,,,0.00,WeatherCatV1.11B39,2013-03-22 16:32:00,
2013-03-22 12:37:00,43.4,20.1,30.00,SE,137,7.0,9.0,39,0.00,,,0.00,WeatherCatV1.11B39,2013-03-22 16:37:00,
2013-03-22 12:42:00,43.5,20.2,30.00,SE,128,2.0,6.0,39,0.00,,,0.00,WeatherCatV1.11B39,2013-03-22 16:42:00,
2013-03-22 12:47:00,43.6,20.3,30.00,SE,143,4.0,6.0,39,0.00,,,0.00,WeatherCatV1.11B39,2013-03-22 16:47:00,
2013-03-22 12:52:00,43.6,20.3,30.01,SSE,159,6.0,7.0,39,0.00,,,0.00,WeatherCatV1.11B39,2013-03-22 16:52:00,
2013-03-22 12:57:00,43.9,21.2,30.01,SE,130,2.0,5.0,40,0.00,,,0.00,WeatherCatV1.11B39,2013-03-22 16:57:00,
2013-03-22 13:02:00,44.3,21.5,30.00,SSE,167,5.0,7.0,40,0.00,,,0.00,WeatherCatV1.11B39,2013-03-22 17:02:00,
2013-03-22 13:07:00,44.3,21.5,30.00,SSE,150,2.0,4.0,40,0.00,,,0.00,WeatherCatV1.11B39,2013-03-22 17:07:00,
2013-03-22 13:12:00,44.5,21.7,30.00,SE,142,7.0,11.0,40,0.00,,,0.00,WeatherCatV1.11B39,2013-03-22 17:12:00,
2013-03-22 13:17:00,44.5,21.7,30.00,East,90,4.0,5.0,40,0.00,,,0.00,WeatherCatV1.11B39,2013-03-22 17:17:00,
2013-03-22 13:22:00,44.7,23.0,30.00,NNE,32,3.0,4.0,42,0.00,,,0.00,WeatherCatV1.11B39,2013-03-22 17:22:00,
2013-03-22 13:27:00,45.0,21.5,30.00,ESE,121,5.0,6.0,39,0.00,,,0.00,WeatherCatV1.11B39,2013-03-22 17:27:00,
2013-03-22 13:32:00,44.8,22.0,30.00,ESE,119,6.0,6.0,40,0.00,,,0.00,WeatherCatV1.11B39,2013-03-22 17:32:00,
2013-03-22 13:37:00,44.7,22.5,30.00,SSE,161,4.0,5.0,41,0.00,,,0.00,WeatherCatV1.11B39,2013-03-22 17:37:00,
2013-03-22 13:42:00,44.9,23.2,30.00,ESE,103,4.0,7.0,42,0.00,,,0.00,WeatherCatV1.11B39,2013-03-22 17:42:00,
2013-03-22 13:47:00,45.0,23.3,29.99,SSE,160,5.0,6.0,42,0.00,,,0.00,WeatherCatV1.11B39,2013-03-22 17:47:00,
2013-03-22 13:52:00,45.0,22.7,29.99,South,182,1.0,4.0,41,0.00,,,0.00,WeatherCatV1.11B39,2013-03-22 17:52:00,
2013-03-22 13:57:00,45.2,23.5,29.99,ESE,106,5.0,8.0,42,0.00,,,0.00,WeatherCatV1.11B39,2013-03-22 17:57:00,
2013-03-22 14:02:00,45.4,24.2,30.00,SSE,167,5.0,8.0,43,0.00,,,0.00,WeatherCatV1.11B39,2013-03-22 18:02:00,
2013-03-22 14:07:00,45.8,24.0,29.99,South,175,4.0,8.0,42,0.00,,,0.00,WeatherCatV1.11B39,2013-03-22 18:07:00,
2013-03-22 14:11:00,45.5,23.2,29.99,SSE,159,6.0,10.0,41,0.00,,,0.00,WeatherCatV1.11B39,2013-03-22 18:11:00,
2013-03-22 14:16:00,45.5,23.2,29.99,SE,125,4.0,9.0,41,0.00,,,0.00,WeatherCatV1.11B39,2013-03-22 18:16:00,
2013-03-22 14:21:00,45.9,25.8,29.99,SSE,149,4.0,7.0,45,0.00,,,0.00,WeatherCatV1.11B39,2013-03-22 18:21:00,
2013-03-22 14:26:00,46.1,23.7,29.98,SE,138,1.0,1.0,41,0.00,,,0.00,WeatherCatV1.11B39,2013-03-22 18:26:00,
2013-03-22 14:31:00,46.6,25.9,29.98,ESE,112,9.0,9.0,44,0.00,,,0.00,WeatherCatV1.11B39,2013-03-22 18:31:00,
2013-03-22 14:36:00,46.5,25.8,29.98,SE,125,6.0,8.0,44,0.00,,,0.00,WeatherCatV1.11B39,2013-03-22 18:36:00,
2013-03-22 14:41:00,46.6,25.3,29.98,ESE,111,8.0,14.0,43,0.00,,,0.00,WeatherCatV1.11B39,2013-03-22 18:41:00,
2013-03-22 14:46:00,46.4,24.0,29.98,East,95,0.0,9.0,41,0.00,,,0.00,WeatherCatV1.11B39,2013-03-22 18:46:00,
2013-03-22 14:51:00,46.7,27.0,29.98,SE,132,7.0,8.0,46,0.00,,,0.00,WeatherCatV1.11B39,2013-03-22 18:51:00,
2013-03-22 14:56:00,46.7,24.8,29.98,SE,130,7.0,9.0,42,0.00,,,0.00,WeatherCatV1.11B39,2013-03-22 18:56:00,
2013-03-22 15:01:00,46.5,24.7,29.98,ESE,113,5.0,9.0,42,0.00,,,0.00,WeatherCatV1.11B39,2013-03-22 19:01:00,
2013-03-22 15:06:00,46.4,25.1,29.97,East,96,2.0,4.0,43,0.00,,,0.00,WeatherCatV1.11B39,2013-03-22 19:06:00,
2013-03-22 15:11:00,46.7,26.0,29.98,SSW,194,8.0,11.0,44,0.00,,,0.00,WeatherCatV1.11B39,2013-03-22 19:11:00,
2013-03-22 15:16:00,46.7,24.8,29.97,SSW,199,3.0,7.0,42,0.00,,,0.00,WeatherCatV1.11B39,2013-03-22 19:16:00,
2013-03-22 15:21:00,46.9,25.0,29.97,South,169,7.0,9.0,42,0.00,,,0.00,WeatherCatV1.11B39,2013-03-22 19:21:00,
2013-03-22 15:26:00,46.8,26.0,29.97,SE,130,6.0,7.0,44,0.00,,,0.00,WeatherCatV1.11B39,2013-03-22 19:26:00,
2013-03-22 15:31:00,46.9,25.6,29.97,ESE,122,2.0,5.0,43,0.00,,,0.00,WeatherCatV1.11B39,2013-03-22 19:31:00,
2013-03-22 15:36:00,47.1,26.3,29.96,ESE,122,6.0,7.0,44,0.00,,,0.00,WeatherCatV1.11B39,2013-03-22 19:36:00,
2013-03-22 15:41:00,47.6,27.3,29.95,SE,140,6.0,8.0,45,0.00,,,0.00,WeatherCatV1.11B39,2013-03-22 19:41:00,
2013-03-22 15:46:00,47.8,27.0,29.95,SE,138,1.0,5.0,44,0.00,,,0.00,WeatherCatV1.11B39,2013-03-22 19:46:00,
2013-03-22 15:51:00,48.2,27.9,29.94,SSE,159,5.0,5.0,45,0.00,,,0.00,WeatherCatV1.11B39,2013-03-22 19:51:00,
2013-03-22 15:56:00,48.5,27.6,29.94,SSE,163,4.0,8.0,44,0.00,,,0.00,WeatherCatV1.11B39,2013-03-22 19:56:00,
2013-03-22 16:01:00,48.7,28.9,29.95,SSE,159,4.0,5.0,46,0.00,,,0.00,WeatherCatV1.11B39,2013-03-22 20:01:00,
2013-03-22 16:06:00,49.0,27.5,29.94,South,171,2.0,7.0,43,0.00,,,0.00,WeatherCatV1.11B39,2013-03-22 20:06:00,
2013-03-22 16:11:00,49.3,27.8,29.94,SE,132,6.0,9.0,43,0.00,,,0.00,WeatherCatV1.11B39,2013-03-22 20:11:00,
2013-03-22 16:16:00,49.2,27.7,29.94,SE,142,1.0,2.0,43,0.00,,,0.00,WeatherCatV1.11B39,2013-03-22 20:16:00,
2013-03-22 16:21:00,49.3,27.8,29.95,ESE,116,4.0,5.0,43,0.00,,,0.00,WeatherCatV1.11B39,2013-03-22 20:21:00,
2013-03-22 16:26:00,49.5,27.4,29.94,SSE,148,1.0,5.0,42,0.00,,,0.00,WeatherCatV1.11B39,2013-03-22 20:26:00,
2013-03-22 16:31:00,49.8,28.2,29.94,NE,36,2.0,4.0,43,0.00,,,0.00,WeatherCatV1.11B39,2013-03-22 20:31:00,
2013-03-22 16:36:00,50.2,27.4,29.94,ESE,112,8.0,9.0,41,0.00,,,0.00,WeatherCatV1.11B39,2013-03-22 20:36:00,
2013-03-22 16:41:00,50.1,28.5,29.94,ESE,109,11.0,12.0,43,0.00,,,0.00,WeatherCatV1.11B39,2013-03-22 20:41:00,
2013-03-22 16:46:00,49.6,26.9,29.94,SE,130,5.0,7.0,41,0.00,,,0.00,WeatherCatV1.11B39,2013-03-22 20:46:00,
2013-03-22 16:51:00,49.5,26.8,29.94,East,92,0.0,4.0,41,0.00,,,0.00,WeatherCatV1.11B39,2013-03-22 20:51:00,
2013-03-22 16:56:00,49.6,28.0,29.94,ENE,61,4.0,4.0,43,0.00,,,0.00,WeatherCatV1.11B39,2013-03-22 20:56:00,
2013-03-22 17:01:00,49.7,28.7,29.93,ENE,69,3.0,5.0,44,0.00,,,0.00,WeatherCatV1.11B39,2013-03-22 21:01:00,
2013-03-22 17:06:00,49.9,28.9,29.94,SE,144,8.0,8.0,44,0.00,,,0.00,WeatherCatV1.11B39,2013-03-22 21:06:00,
2013-03-22 17:11:00,49.7,28.7,29.94,SE,131,4.0,6.0,44,0.00,,,0.00,WeatherCatV1.11B39,2013-03-22 21:11:00,
2013-03-22 17:16:00,49.7,28.1,29.94,East,101,5.0,5.0,43,0.00,,,0.00,WeatherCatV1.11B39,2013-03-22 21:16:00,
2013-03-22 17:21:00,49.5,28.5,29.94,SE,129,7.0,9.0,44,0.00,,,0.00,WeatherCatV1.11B39,2013-03-22 21:21:00,
2013-03-22 17:26:00,49.3,28.3,29.94,SE,142,4.0,8.0,44,0.00,,,0.00,WeatherCatV1.11B39,2013-03-22 21:26:00,
2013-03-22 17:31:00,49.2,28.8,29.94,South,173,0.0,2.0,45,0.00,,,0.00,WeatherCatV1.11B39,2013-03-22 21:31:00,
2013-03-22 17:36:00,49.3,29.4,29.94,South,173,1.0,2.0,46,0.00,,,0.00,WeatherCatV1.11B39,2013-03-22 21:36:00,
2013-03-22 17:41:00,49.5,29.6,29.94,SSE,153,2.0,5.0,46,0.00,,,0.00,WeatherCatV1.11B39,2013-03-22 21:41:00,
2013-03-22 17:46:00,49.5,29.0,29.94,SSE,159,2.0,6.0,45,0.00,,,0.00,WeatherCatV1.11B39,2013-03-22 21:46:00,
2013-03-22 17:51:00,49.5,29.6,29.94,SSE,159,0.0,2.0,46,0.00,,,0.00,WeatherCatV1.11B39,2013-03-22 21:51:00,
2013-03-22 17:56:00,49.5,29.6,29.94,SSE,149,1.0,5.0,46,0.00,,,0.00,WeatherCatV1.11B39,2013-03-22 21:56:00,
2013-03-22 18:01:00,49.5,29.6,29.94,SSE,149,4.0,4.0,46,0.00,,,0.00,WeatherCatV1.11B39,2013-03-22 22:01:00,
2013-03-22 18:06:00,49.5,29.6,29.94,SSE,149,0.0,2.0,46,0.00,,,0.00,WeatherCatV1.11B39,2013-03-22 22:06:00,
2013-03-22 18:11:00,49.5,29.6,29.94,ESE,119,2.0,7.0,46,0.00,,,0.00,WeatherCatV1.11B39,2013-03-22 22:11:00,
2013-03-22 18:16:00,49.5,29.6,29.94,SE,124,1.0,4.0,46,0.00,,,0.00,WeatherCatV1.11B39,2013-03-22 22:16:00,
2013-03-22 18:21:00,49.5,29.6,29.94,ESE,123,5.0,5.0,46,0.00,,,0.00,WeatherCatV1.11B39,2013-03-22 22:21:00,
2013-03-22 18:26:00,49.5,29.6,29.93,ESE,102,4.0,9.0,46,0.00,,,0.00,WeatherCatV1.11B39,2013-03-22 22:26:00,
2013-03-22 18:31:00,49.5,29.6,29.93,East,86,1.0,4.0,46,0.00,,,0.00,WeatherCatV1.11B39,2013-03-22 22:31:00,
2013-03-22 18:36:00,49.4,29.0,29.93,East,86,4.0,4.0,45,0.00,,,0.00,WeatherCatV1.11B39,2013-03-22 22:36:00,
2013-03-22 18:41:00,49.4,30.0,29.94,East,86,2.0,2.0,47,0.00,,,0.00,WeatherCatV1.11B39,2013-03-22 22:41:00,
2013-03-22 18:46:00,49.3,29.9,29.94,SE,138,1.0,5.0,47,0.00,,,0.00,WeatherCatV1.11B39,2013-03-22 22:46:00,
2013-03-22 18:51:00,49.2,30.4,29.94,SE,138,0.0,0.0,48,0.00,,,0.00,WeatherCatV1.11B39,2013-03-22 22:51:00,
2013-03-22 18:56:00,49.2,29.8,29.94,SE,138,1.0,2.0,47,0.00,,,0.00,WeatherCatV1.11B39,2013-03-22 22:56:00,
2013-03-22 19:01:00,49.1,29.7,29.95,SE,139,5.0,6.0,47,0.00,,,0.00,WeatherCatV1.11B39,2013-03-22 23:01:00,
2013-03-22 19:06:00,48.9,29.6,29.95,ESE,123,6.0,8.0,47,0.00,,,0.00,WeatherCatV1.11B39,2013-03-22 23:06:00,
2013-03-22 19:11:00,48.8,29.5,29.95,SE,132,5.0,6.0,47,0.00,,,0.00,WeatherCatV1.11B39,2013-03-22 23:11:00,
2013-03-22 19:16:00,48.7,29.9,29.95,SE,132,2.0,2.0,48,0.00,,,0.00,WeatherCatV1.11B39,2013-03-22 23:16:00,
2013-03-22 19:21:00,48.7,29.9,29.94,SE,128,4.0,5.0,48,0.00,,,0.00,WeatherCatV1.11B39,2013-03-22 23:21:00,
2013-03-22 19:26:00,48.6,29.8,29.95,East,82,3.0,4.0,48,0.00,,,0.00,WeatherCatV1.11B39,2013-03-22 23:26:00,
2013-03-22 19:31:00,48.5,29.7,29.95,ENE,68,4.0,4.0,48,0.00,,,0.00,WeatherCatV1.11B39,2013-03-22 23:31:00,
2013-03-22 19:36:00,48.3,29.5,29.95,ENE,67,2.0,2.0,48,0.00,,,0.00,WeatherCatV1.11B39,2013-03-22 23:36:00,
2013-03-22 19:41:00,48.2,29.4,29.95,ENE,67,0.0,0.0,48,0.00,,,0.00,WeatherCatV1.11B39,2013-03-22 23:41:00,
2013-03-22 19:46:00,48.1,29.3,29.95,ENE,67,0.0,1.0,48,0.00,,,0.00,WeatherCatV1.11B39,2013-03-22 23:46:00,
2013-03-22 19:51:00,48.1,29.9,29.95,ESE,108,5.0,5.0,49,0.00,,,0.00,WeatherCatV1.11B39,2013-03-22 23:51:00,
2013-03-22 19:56:00,47.9,29.7,29.96,SE,138,5.0,6.0,49,0.00,,,0.00,WeatherCatV1.11B39,2013-03-22 23:56:00,
2013-03-22 20:01:00,47.8,29.6,29.96,ESE,121,2.0,6.0,49,0.00,,,0.00,WeatherCatV1.11B39,2013-03-23 00:01:00,
2013-03-22 20:06:00,47.8,30.1,29.96,ESE,121,0.0,0.0,50,0.00,,,0.00,WeatherCatV1.11B39,2013-03-23 00:06:00,
2013-03-22 20:11:00,47.7,30.0,29.96,ESE,121,0.0,0.0,50,0.00,,,0.00,WeatherCatV1.11B39,2013-03-23 00:11:00,
2013-03-22 20:16:00,47.7,30.5,29.97,ESE,121,0.0,0.0,51,0.00,,,0.00,WeatherCatV1.11B39,2013-03-23 00:16:00,
2013-03-22 20:21:00,47.6,30.4,29.96,ESE,121,0.0,0.0,51,0.00,,,0.00,WeatherCatV1.11B39,2013-03-23 00:21:00,
2013-03-22 20:26:00,47.5,30.3,29.96,ESE,121,1.0,2.0,51,0.00,,,0.00,WeatherCatV1.11B39,2013-03-23 00:26:00,
2013-03-22 20:31:00,47.4,30.2,29.96,ESE,121,0.0,5.0,51,0.00,,,0.00,WeatherCatV1.11B39,2013-03-23 00:31:00,
2013-03-22 20:36:00,47.4,30.7,29.97,ESE,121,0.0,0.0,52,0.00,,,0.00,WeatherCatV1.11B39,2013-03-23 00:36:00,
2013-03-22 20:41:00,47.3,30.6,29.97,ESE,121,4.0,4.0,52,0.00,,,0.00,WeatherCatV1.11B39,2013-03-23 00:41:00,
2013-03-22 20:46:00,47.2,31.0,29.97,ESE,121,0.0,1.0,53,0.00,,,0.00,WeatherCatV1.11B39,2013-03-23 00:46:00,
2013-03-22 20:51:00,47.1,30.9,29.97,ESE,121,0.0,0.0,53,0.00,,,0.00,WeatherCatV1.11B39,2013-03-23 00:51:00,
2013-03-22 20:56:00,47.1,31.3,29.97,ESE,121,2.0,4.0,54,0.00,,,0.00,WeatherCatV1.11B39,2013-03-23 00:56:00,
2013-03-22 21:01:00,47.0,31.2,29.97,ESE,121,0.0,0.0,54,0.00,,,0.00,WeatherCatV1.11B39,2013-03-23 01:01:00,
2013-03-22 21:06:00,47.0,31.2,29.97,ESE,121,0.0,0.0,54,0.00,,,0.00,WeatherCatV1.11B39,2013-03-23 01:06:00,
2013-03-22 21:11:00,46.9,31.1,29.97,ESE,121,0.0,4.0,54,0.00,,,0.00,WeatherCatV1.11B39,2013-03-23 01:11:00,
2013-03-22 21:16:00,46.9,32.0,29.97,ESE,121,0.0,0.0,56,0.00,,,0.00,WeatherCatV1.11B39,2013-03-23 01:16:00,
2013-03-22 21:21:00,46.9,32.0,29.97,ESE,121,0.0,0.0,56,0.00,,,0.00,WeatherCatV1.11B39,2013-03-23 01:21:00,
2013-03-22 21:26:00,46.9,31.6,29.98,ESE,121,0.0,0.0,55,0.00,,,0.00,WeatherCatV1.11B39,2013-03-23 01:26:00,
2013-03-22 21:31:00,46.8,31.9,29.98,ESE,121,0.0,0.0,56,0.00,,,0.00,WeatherCatV1.11B39,2013-03-23 01:31:00,
2013-03-22 21:36:00,46.8,32.4,29.98,ESE,121,0.0,0.0,57,0.00,,,0.00,WeatherCatV1.11B39,2013-03-23 01:36:00,
2013-03-22 21:41:00,46.7,31.8,29.98,ESE,121,0.0,0.0,56,0.00,,,0.00,WeatherCatV1.11B39,2013-03-23 01:41:00,
2013-03-22 21:46:00,46.7,32.7,29.98,ESE,121,0.0,0.0,58,0.00,,,0.00,WeatherCatV1.11B39,2013-03-23 01:46:00,
2013-03-22 21:51:00,46.6,31.8,29.98,ESE,121,0.0,0.0,56,0.00,,,0.00,WeatherCatV1.11B39,2013-03-23 01:51:00,
2013-03-22 21:56:00,46.6,31.8,29.98,ESE,121,0.0,0.0,56,0.00,,,0.00,WeatherCatV1.11B39,2013-03-23 01:56:00,
2013-03-22 22:01:00,46.6,31.8,29.99,ESE,121,0.0,0.0,56,0.00,,,0.00,WeatherCatV1.11B39,2013-03-23 02:01:00,
2013-03-22 22:06:00,46.6,32.2,29.98,ESE,121,0.0,0.0,57,0.00,,,0.00,WeatherCatV1.11B39,2013-03-23 02:06:00,
2013-03-22 22:11:00,46.5,32.5,29.98,ESE,121,0.0,0.0,58,0.00,,,0.00,WeatherCatV1.11B39,2013-03-23 02:11:00,
2013-03-22 22:16:00,46.5,32.5,29.98,ESE,121,0.0,0.0,58,0.00,,,0.00,WeatherCatV1.11B39,2013-03-23 02:16:00,
2013-03-22 22:21:00,46.4,32.4,29.98,ESE,121,0.0,2.0,58,0.00,,,0.00,WeatherCatV1.11B39,2013-03-23 02:21:00,
2013-03-22 22:26:00,46.4,32.0,29.98,ESE,121,2.0,2.0,57,0.00,,,0.00,WeatherCatV1.11B39,2013-03-23 02:26:00,
2013-03-22 22:31:00,46.4,32.4,29.98,ESE,121,2.0,4.0,58,0.00,,,0.00,WeatherCatV1.11B39,2013-03-23 02:31:00,
2013-03-22 22:36:00,46.3,31.9,29.98,ESE,121,2.0,4.0,57,0.00,,,0.00,WeatherCatV1.11B39,2013-03-23 02:36:00,
2013-03-22 22:41:00,46.3,32.3,29.98,ESE,121,0.0,1.0,58,0.00,,,0.00,WeatherCatV1.11B39,2013-03-23 02:41:00,
2013-03-22 22:46:00,46.2,31.8,29.98,ESE,121,0.0,1.0,57,0.00,,,0.00,WeatherCatV1.11B39,2013-03-23 02:46:00,
2013-03-22 22:51:00,46.2,31.8,29.98,ESE,121,0.0,0.0,57,0.00,,,0.00,WeatherCatV1.11B39,2013-03-23 02:51:00,
2013-03-22 22:56:00,46.1,32.2,29.98,ESE,121,0.0,2.0,58,0.00,,,0.00,WeatherCatV1.11B39,2013-03-23 02:56:00,
2013-03-22 23:01:00,46.1,31.7,29.98,ESE,121,0.0,0.0,57,0.00,,,0.00,WeatherCatV1.11B39,2013-03-23 03:01:00,
2013-03-22 23:05:00,46.1,32.2,29.98,ESE,121,0.0,0.0,58,0.00,,,0.00,WeatherCatV1.11B39,2013-03-23 03:05:00,
2013-03-22 23:10:00,46.0,32.1,29.99,ESE,121,0.0,0.0,58,0.00,,,0.00,WeatherCatV1.11B39,2013-03-23 03:10:00,
2013-03-22 23:15:00,46.0,32.5,29.98,ESE,121,0.0,0.0,59,0.00,,,0.00,WeatherCatV1.11B39,2013-03-23 03:15:00,
2013-03-22 23:20:00,45.9,32.8,29.99,ESE,121,0.0,0.0,60,0.00,,,0.00,WeatherCatV1.11B39,2013-03-23 03:20:00,
2013-03-22 23:25:00,45.9,32.8,29.98,ESE,121,0.0,0.0,60,0.00,,,0.00,WeatherCatV1.11B39,2013-03-23 03:25:00,
2013-03-22 23:30:00,45.8,32.7,29.98,ESE,121,0.0,0.0,60,0.00,,,0.00,WeatherCatV1.11B39,2013-03-23 03:30:00,
2013-03-22 23:35:00,45.7,32.6,29.98,ESE,121,0.0,0.0,60,0.00,,,0.00,WeatherCatV1.11B39,2013-03-23 03:35:00,
2013-03-22 23:40:00,45.6,34.1,29.98,ESE,121,0.0,0.0,64,0.00,,,0.00,WeatherCatV1.11B39,2013-03-23 03:40:00,
2013-03-22 23:45:00,45.5,34.4,29.99,ESE,121,0.0,0.0,65,0.00,,,0.00,WeatherCatV1.11B39,2013-03-23 03:45:00,
2013-03-22 23:50:00,45.4,32.7,29.98,ESE,121,0.0,0.0,61,0.00,,,0.00,WeatherCatV1.11B39,2013-03-23 03:50:00,
2013-03-22 23:55:00,45.4,33.6,29.98,ESE,121,0.0,0.0,63,0.00,,,0.00,WeatherCatV1.11B39,2013-03-23 03:55:00,